Time,TemperatureF,DewpointF,PressureIn,WindDirection,WindDirectionDegrees,WindSpeedMPH,WindSpeedGustMPH,Humidity,HourlyPrecipIn,Conditions,Clouds,dailyrainin,SoftwareType,DateUTC
2013-09-13 00:01:00,55.8,43.7,30.50,ESE,112,0.0,0.0,64,0.00,,,0.00,WUHU21623XXSP,2013-09-13 04:01:00,
2013-09-13 00:03:00,55.8,43.7,30.50,SSE,157,0.0,0.0,64,0.00,,,0.00,WUHU21623XXSP,2013-09-13 04:03:00,
2013-09-13 00:08:00,55.6,43.5,30.50,SW,225,0.0,0.0,64,0.00,,,0.00,WUHU21623XXSP,2013-09-13 04:08:00,
2013-09-13 00:13:00,55.6,43.5,30.50,West,270,0.0,0.0,64,0.00,,,0.00,WUHU21623XXSP,2013-09-13 04:13:00,
2013-09-13 00:18:00,55.4,43.0,30.50,SSW,202,0.0,0.0,63,0.00,,,0.00,WUHU21623XXSP,2013-09-13 04:18:00,
2013-09-13 00:23:00,55.2,43.2,30.50,ENE,67,0.0,0.0,64,0.00,,,0.00,WUHU21623XXSP,2013-09-13 04:23:00,
2013-09-13 00:28:00,55.2,43.2,30.50,SW,225,0.0,0.0,64,0.00,,,0.00,WUHU21623XXSP,2013-09-13 04:28:00,
2013-09-13 00:33:00,55.0,42.6,30.50,West,270,0.0,0.0,63,0.00,,,0.00,WUHU21623XXSP,2013-09-13 04:33:00,
2013-09-13 00:38:00,54.7,42.3,30.50,West,270,0.0,0.0,63,0.00,,,0.00,WUHU21623XXSP,2013-09-13 04:38:00,
2013-09-13 00:43:00,54.7,42.7,30.51,SW,225,0.0,0.0,64,0.00,,,0.00,WUHU21623XXSP,2013-09-13 04:43:00,
2013-09-13 00:48:00,54.3,42.4,30.50,South,180,0.0,0.0,64,0.00,,,0.00,WUHU21623XXSP,2013-09-13 04:48:00,
2013-09-13 00:53:00,54.3,42.4,30.51,SW,225,0.0,0.0,65,0.00,,,0.00,WUHU21623XXSP,2013-09-13 04:53:00,
2013-09-13 00:58:00,54.1,42.6,30.51,WSW,247,0.0,0.0,65,0.00,,,0.00,WUHU21623XXSP,2013-09-13 04:58:00,
2013-09-13 01:03:00,54.1,42.6,30.51,WSW,247,0.0,0.0,65,0.00,,,0.00,WUHU21623XXSP,2013-09-13 05:03:00,
2013-09-13 01:08:00,53.8,42.6,30.51,WSW,247,0.0,0.0,66,0.00,,,0.00,WUHU21623XXSP,2013-09-13 05:08:00,
2013-09-13 01:13:00,53.8,42.6,30.50,WSW,247,0.0,0.0,66,0.00,,,0.00,WUHU21623XXSP,2013-09-13 05:13:00,
2013-09-13 01:18:00,53.4,42.3,30.50,NW,315,0.0,0.0,66,0.00,,,0.00,WUHU21623XXSP,2013-09-13 05:18:00,
2013-09-13 01:23:00,53.4,42.7,30.51,West,270,0.0,0.0,67,0.00,,,0.00,WUHU21623XXSP,2013-09-13 05:23:00,
2013-09-13 01:28:00,53.2,42.5,30.51,SE,135,0.0,0.0,67,0.00,,,0.00,WUHU21623XXSP,2013-09-13 05:28:00,
2013-09-13 01:32:00,53.2,42.5,30.51,West,270,0.0,0.0,67,0.00,,,0.00,WUHU21623XXSP,2013-09-13 05:32:00,
2013-09-13 01:37:00,52.9,42.2,30.50,WSW,247,0.0,0.0,67,0.00,,,0.00,WUHU21623XXSP,2013-09-13 05:37:00,
2013-09-13 01:42:00,52.9,42.2,30.51,SW,225,0.0,6.0,67,0.00,,,0.00,WUHU21623XXSP,2013-09-13 05:42:00,
2013-09-13 01:47:00,52.5,42.3,30.51,SW,225,0.0,6.0,68,0.00,,,0.00,WUHU21623XXSP,2013-09-13 05:47:00,
2013-09-13 01:52:00,52.5,42.3,30.51,SW,225,0.0,0.0,68,0.00,,,0.00,WUHU21623XXSP,2013-09-13 05:52:00,
2013-09-13 01:57:00,52.3,42.1,30.50,WSW,247,0.0,0.0,68,0.00,,,0.00,WUHU21623XXSP,2013-09-13 05:57:00,
2013-09-13 02:02:00,52.3,42.5,30.51,WSW,247,0.0,0.0,69,0.00,,,0.00,WUHU21623XXSP,2013-09-13 06:02:00,
2013-09-13 02:07:00,52.2,42.4,30.51,SSW,202,0.0,0.0,69,0.00,,,0.00,WUHU21623XXSP,2013-09-13 06:07:00,
2013-09-13 02:12:00,52.0,42.2,30.51,SSE,157,1.8,1.8,69,0.00,,,0.00,WUHU21623XXSP,2013-09-13 06:12:00,
2013-09-13 02:17:00,51.6,42.3,30.51,ESE,112,0.0,1.8,70,0.00,,,0.00,WUHU21623XXSP,2013-09-13 06:17:00,
2013-09-13 02:22:00,51.6,42.3,30.51,WNW,292,0.0,0.0,70,0.00,,,0.00,WUHU21623XXSP,2013-09-13 06:22:00,
2013-09-13 02:27:00,51.4,42.4,30.51,SW,225,0.0,0.0,71,0.00,,,0.00,WUHU21623XXSP,2013-09-13 06:27:00,
2013-09-13 02:32:00,51.1,42.4,30.51,SW,225,0.0,0.0,72,0.00,,,0.00,WUHU21623XXSP,2013-09-13 06:32:00,
2013-09-13 02:37:00,51.1,42.4,30.51,West,270,0.0,0.0,72,0.00,,,0.00,WUHU21623XXSP,2013-09-13 06:37:00,
2013-09-13 02:42:00,50.9,42.6,30.51,West,270,0.0,0.0,73,0.00,,,0.00,WUHU21623XXSP,2013-09-13 06:42:00,
2013-09-13 02:47:00,50.7,42.7,30.51,WSW,247,0.0,0.0,74,0.00,,,0.00,WUHU21623XXSP,2013-09-13 06:47:00,
2013-09-13 02:52:00,50.5,42.5,30.51,SW,225,0.0,0.0,74,0.00,,,0.00,WUHU21623XXSP,2013-09-13 06:52:00,
2013-09-13 02:57:00,50.5,42.5,30.51,West,270,0.0,0.0,74,0.00,,,0.00,WUHU21623XXSP,2013-09-13 06:57:00,
2013-09-13 03:02:00,50.5,42.5,30.51,WSW,247,0.0,0.0,74,0.00,,,0.00,WUHU21623XXSP,2013-09-13 07:02:00,
2013-09-13 03:07:00,50.4,42.7,30.51,WSW,247,0.0,0.0,75,0.00,,,0.00,WUHU21623XXSP,2013-09-13 07:07:00,
2013-09-13 03:12:00,50.4,43.1,30.51,WSW,247,0.0,0.0,76,0.00,,,0.00,WUHU21623XXSP,2013-09-13 07:12:00,
2013-09-13 03:18:00,50.4,43.1,30.52,South,180,0.0,0.0,76,0.00,,,0.00,WUHU21623XXSP,2013-09-13 07:18:00,
2013-09-13 03:27:00,50.5,43.2,30.52,WSW,247,0.0,0.0,76,0.00,,,0.00,WUHU21623XXSP,2013-09-13 07:27:00,
2013-09-13 03:32:00,50.7,43.8,30.51,SE,135,0.0,1.3,77,0.00,,,0.00,WUHU21623XXSP,2013-09-13 07:32:00,
2013-09-13 03:37:00,50.7,43.8,30.52,SW,225,0.0,1.3,77,0.00,,,0.00,WUHU21623XXSP,2013-09-13 07:37:00,
2013-09-13 03:42:00,50.7,43.8,30.52,West,270,0.0,0.0,77,0.00,,,0.00,WUHU21623XXSP,2013-09-13 07:42:00,
2013-09-13 03:47:00,50.7,43.8,30.53,West,270,0.0,0.0,77,0.00,,,0.00,WUHU21623XXSP,2013-09-13 07:47:00,
2013-09-13 03:52:00,50.7,43.8,30.53,WSW,247,0.0,0.0,77,0.00,,,0.00,WUHU21623XXSP,2013-09-13 07:52:00,
2013-09-13 03:57:00,50.7,43.8,30.53,WSW,247,0.0,0.0,77,0.00,,,0.00,WUHU21623XXSP,2013-09-13 07:57:00,
2013-09-13 04:02:00,50.7,43.8,30.53,WSW,247,0.0,0.0,77,0.00,,,0.00,WUHU21623XXSP,2013-09-13 08:02:00,
2013-09-13 04:07:00,50.7,43.8,30.52,South,180,0.0,0.0,77,0.00,,,0.00,WUHU21623XXSP,2013-09-13 08:07:00,
2013-09-13 04:12:00,50.7,43.8,30.53,WSW,247,0.0,0.0,77,0.00,,,0.00,WUHU21623XXSP,2013-09-13 08:12:00,
2013-09-13 04:18:00,50.5,43.6,30.53,WSW,247,0.0,0.0,77,0.00,,,0.00,WUHU21623XXSP,2013-09-13 08:18:00,
2013-09-13 04:23:00,50.5,43.6,30.53,SSW,202,0.0,0.0,77,0.00,,,0.00,WUHU21623XXSP,2013-09-13 08:23:00,
2013-09-13 04:27:00,50.4,43.6,30.53,WSW,247,0.0,0.0,78,0.00,,,0.00,WUHU21623XXSP,2013-09-13 08:27:00,
2013-09-13 04:32:00,50.4,43.7,30.54,South,180,0.0,0.0,78,0.00,,,0.00,WUHU21623XXSP,2013-09-13 08:32:00,
2013-09-13 04:37:00,50.4,43.7,30.54,West,270,0.0,0.0,78,0.00,,,0.00,WUHU21623XXSP,2013-09-13 08:37:00,
2013-09-13 04:42:00,50.4,43.7,30.54,West,270,0.0,0.0,78,0.00,,,0.00,WUHU21623XXSP,2013-09-13 08:42:00,
2013-09-13 04:47:00,50.4,44.1,30.55,South,180,0.0,0.0,79,0.00,,,0.00,WUHU21623XXSP,2013-09-13 08:47:00,
2013-09-13 04:52:00,50.4,43.7,30.55,WSW,247,0.0,0.0,78,0.00,,,0.00,WUHU21623XXSP,2013-09-13 08:52:00,
2013-09-13 04:57:00,50.2,43.6,30.54,SW,225,0.0,0.0,78,0.00,,,0.00,WUHU21623XXSP,2013-09-13 08:57:00,
2013-09-13 05:02:00,50.2,43.6,30.54,SW,225,0.0,0.0,78,0.00,,,0.00,WUHU21623XXSP,2013-09-13 09:02:00,
2013-09-13 05:07:00,49.8,43.5,30.54,East,90,0.0,0.0,79,0.00,,,0.00,WUHU21623XXSP,2013-09-13 09:07:00,
2013-09-13 05:12:00,49.8,43.5,30.55,West,270,0.0,0.0,79,0.00,,,0.00,WUHU21623XXSP,2013-09-13 09:12:00,
2013-09-13 05:17:00,49.8,43.5,30.55,ESE,112,0.0,0.0,79,0.00,,,0.00,WUHU21623XXSP,2013-09-13 09:17:00,
2013-09-13 05:22:00,49.8,43.5,30.55,WSW,247,0.0,0.0,79,0.00,,,0.00,WUHU21623XXSP,2013-09-13 09:22:00,
2013-09-13 05:27:00,49.6,43.4,30.55,SW,225,0.0,0.0,79,0.00,,,0.00,WUHU21623XXSP,2013-09-13 09:27:00,
2013-09-13 05:32:00,49.6,43.4,30.55,WSW,247,0.0,0.0,79,0.00,,,0.00,WUHU21623XXSP,2013-09-13 09:32:00,
2013-09-13 05:37:00,49.6,43.7,30.55,SW,225,0.0,0.0,80,0.00,,,0.00,WUHU21623XXSP,2013-09-13 09:37:00,
2013-09-13 05:42:00,49.6,43.7,30.55,SW,225,0.0,0.0,80,0.00,,,0.00,WUHU21623XXSP,2013-09-13 09:42:00,
2013-09-13 05:47:00,49.5,43.5,30.55,SSW,202,0.0,0.0,80,0.00,,,0.00,WUHU21623XXSP,2013-09-13 09:47:00,
2013-09-13 05:52:00,49.3,43.3,30.55,SE,135,0.0,0.0,80,0.00,,,0.00,WUHU21623XXSP,2013-09-13 09:52:00,
2013-09-13 05:57:00,49.3,43.3,30.55,SSW,202,0.0,0.0,80,0.00,,,0.00,WUHU21623XXSP,2013-09-13 09:57:00,
2013-09-13 06:02:00,49.3,43.3,30.55,SW,225,0.0,0.0,80,0.00,,,0.00,WUHU21623XXSP,2013-09-13 10:02:00,
2013-09-13 06:07:00,49.1,43.2,30.55,SW,225,0.0,0.0,80,0.00,,,0.00,WUHU21623XXSP,2013-09-13 10:07:00,
2013-09-13 06:12:00,48.9,43.3,30.55,SW,225,0.0,0.0,81,0.00,,,0.00,WUHU21623XXSP,2013-09-13 10:12:00,
2013-09-13 06:17:00,48.7,43.1,30.55,SW,225,0.0,0.0,81,0.00,,,0.00,WUHU21623XXSP,2013-09-13 10:17:00,
2013-09-13 06:22:00,48.6,43.3,30.55,SW,225,0.0,0.0,82,0.00,,,0.00,WUHU21623XXSP,2013-09-13 10:22:00,
2013-09-13 06:27:00,48.6,43.3,30.56,NNW,337,0.0,0.0,82,0.00,,,0.00,WUHU21623XXSP,2013-09-13 10:27:00,
2013-09-13 06:32:00,48.2,43.2,30.56,NW,315,0.0,0.0,83,0.00,,,0.00,WUHU21623XXSP,2013-09-13 10:32:00,
2013-09-13 06:37:00,48.0,43.4,30.56,NW,315,0.0,0.0,84,0.00,,,0.00,WUHU21623XXSP,2013-09-13 10:37:00,
2013-09-13 06:42:00,47.8,43.2,30.56,ESE,112,0.0,0.0,84,0.00,,,0.00,WUHU21623XXSP,2013-09-13 10:42:00,
2013-09-13 06:47:00,47.5,42.9,30.56,ESE,112,0.0,0.0,84,0.00,,,0.00,WUHU21623XXSP,2013-09-13 10:47:00,
2013-09-13 06:52:00,47.1,42.2,30.56,South,180,0.0,0.0,83,0.00,,,0.00,WUHU21623XXSP,2013-09-13 10:52:00,
2013-09-13 06:57:00,47.1,42.5,30.56,South,180,0.0,0.0,84,0.00,,,0.00,WUHU21623XXSP,2013-09-13 10:57:00,
2013-09-13 07:02:00,46.9,42.4,30.56,South,180,0.0,0.0,84,0.00,,,0.00,WUHU21623XXSP,2013-09-13 11:02:00,
2013-09-13 07:07:00,46.9,42.4,30.56,WSW,247,0.0,0.0,84,0.00,,,0.00,WUHU21623XXSP,2013-09-13 11:07:00,
2013-09-13 07:12:00,46.9,42.4,30.57,WSW,247,0.0,0.0,84,0.00,,,0.00,WUHU21623XXSP,2013-09-13 11:12:00,
2013-09-13 07:17:00,46.9,42.7,30.57,WSW,247,0.0,0.0,85,0.00,,,0.00,WUHU21623XXSP,2013-09-13 11:17:00,
2013-09-13 07:22:00,46.8,42.5,30.58,WSW,247,0.0,0.0,85,0.00,,,0.00,WUHU21623XXSP,2013-09-13 11:22:00,
2013-09-13 07:27:00,46.6,42.3,30.58,WSW,247,0.0,0.0,85,0.00,,,0.00,WUHU21623XXSP,2013-09-13 11:27:00,
2013-09-13 07:32:00,46.8,42.5,30.57,WSW,247,0.0,0.0,85,0.00,,,0.00,WUHU21623XXSP,2013-09-13 11:32:00,
2013-09-13 07:37:00,46.6,42.3,30.58,WSW,247,0.0,0.0,85,0.00,,,0.00,WUHU21623XXSP,2013-09-13 11:37:00,
2013-09-13 07:42:00,46.6,42.3,30.58,WSW,247,0.0,0.0,85,0.00,,,0.00,WUHU21623XXSP,2013-09-13 11:42:00,
2013-09-13 07:47:00,46.6,42.3,30.58,WSW,247,0.0,0.0,85,0.00,,,0.00,WUHU21623XXSP,2013-09-13 11:47:00,
2013-09-13 07:52:00,46.6,42.3,30.58,WSW,247,0.0,0.0,85,0.00,,,0.00,WUHU21623XXSP,2013-09-13 11:52:00,
2013-09-13 07:57:00,46.6,42.3,30.58,WSW,247,0.0,0.0,85,0.00,,,0.00,WUHU21623XXSP,2013-09-13 11:57:00,
2013-09-13 08:02:00,46.6,42.3,30.58,WSW,247,0.0,0.0,85,0.00,,,0.00,WUHU21623XXSP,2013-09-13 12:02:00,
2013-09-13 08:07:00,46.6,42.3,30.59,WSW,247,0.0,0.0,85,0.00,,,0.00,WUHU21623XXSP,2013-09-13 12:07:00,
2013-09-13 08:12:00,46.8,42.5,30.59,WSW,247,0.0,0.0,85,0.00,,,0.00,WUHU21623XXSP,2013-09-13 12:12:00,
2013-09-13 08:17:00,46.8,42.5,30.59,SW,225,0.0,0.0,85,0.00,,,0.00,WUHU21623XXSP,2013-09-13 12:17:00,
2013-09-13 08:22:00,46.9,42.7,30.59,WSW,247,0.0,0.0,85,0.00,,,0.00,WUHU21623XXSP,2013-09-13 12:22:00,
2013-09-13 08:27:00,46.9,42.7,30.59,WSW,247,0.0,0.0,85,0.00,,,0.00,WUHU21623XXSP,2013-09-13 12:27:00,
2013-09-13 08:32:00,47.1,42.5,30.59,SW,225,0.0,0.0,84,0.00,,,0.00,WUHU21623XXSP,2013-09-13 12:32:00,
2013-09-13 08:37:00,47.3,42.7,30.59,South,180,0.0,0.0,84,0.00,,,0.00,WUHU21623XXSP,2013-09-13 12:37:00,
2013-09-13 08:42:00,47.5,42.5,30.59,WSW,247,0.0,0.0,83,0.00,,,0.00,WUHU21623XXSP,2013-09-13 12:42:00,
2013-09-13 08:47:00,47.8,42.7,30.59,SW,225,0.0,0.0,83,0.00,,,0.00,WUHU21623XXSP,2013-09-13 12:47:00,
2013-09-13 08:52:00,47.8,42.6,30.59,SW,225,0.0,0.0,82,0.00,,,0.00,WUHU21623XXSP,2013-09-13 12:52:00,
2013-09-13 08:57:00,47.8,42.6,30.59,SW,225,0.0,0.0,82,0.00,,,0.00,WUHU21623XXSP,2013-09-13 12:57:00,
2013-09-13 09:02:00,48.0,42.4,30.59,WSW,247,0.0,0.0,81,0.00,,,0.00,WUHU21623XXSP,2013-09-13 13:02:00,
2013-09-13 09:07:00,48.0,42.4,30.59,WSW,247,0.0,0.0,81,0.00,,,0.00,WUHU21623XXSP,2013-09-13 13:07:00,
2013-09-13 09:12:00,48.4,42.4,30.60,WSW,247,0.0,0.0,80,0.00,,,0.00,WUHU21623XXSP,2013-09-13 13:12:00,
2013-09-13 09:17:00,48.6,42.6,30.60,WSW,247,0.0,0.0,80,0.00,,,0.00,WUHU21623XXSP,2013-09-13 13:17:00,
2013-09-13 09:22:00,48.7,42.8,30.60,SW,225,0.0,0.0,80,0.00,,,0.00,WUHU21623XXSP,2013-09-13 13:22:00,
2013-09-13 09:27:00,48.9,42.6,30.60,SW,225,0.0,0.0,79,0.00,,,0.00,WUHU21623XXSP,2013-09-13 13:27:00,
2013-09-13 09:32:00,49.1,42.8,30.60,WSW,247,0.0,0.0,79,0.00,,,0.00,WUHU21623XXSP,2013-09-13 13:32:00,
2013-09-13 09:37:00,49.3,42.7,30.61,West,270,0.0,1.1,78,0.00,,,0.00,WUHU21623XXSP,2013-09-13 13:37:00,
2013-09-13 09:42:00,49.8,42.9,30.61,WSW,247,0.0,1.1,77,0.00,,,0.00,WUHU21623XXSP,2013-09-13 13:42:00,
2013-09-13 09:47:00,49.8,42.5,30.61,WSW,247,0.0,0.0,76,0.00,,,0.00,WUHU21623XXSP,2013-09-13 13:47:00,
2013-09-13 09:52:00,50.0,43.0,30.61,South,180,0.0,0.0,77,0.00,,,0.00,WUHU21623XXSP,2013-09-13 13:52:00,
2013-09-13 09:57:00,50.2,43.2,30.61,SSW,202,0.0,0.0,77,0.00,,,0.00,WUHU21623XXSP,2013-09-13 13:57:00,
2013-09-13 10:02:00,50.5,43.1,30.61,SSW,202,0.0,0.0,77,0.00,,,0.00,WUHU21623XXSP,2013-09-13 14:02:00,
2013-09-13 10:07:00,50.5,43.2,30.61,WSW,247,0.0,0.0,76,0.00,,,0.00,WUHU21623XXSP,2013-09-13 14:07:00,
2013-09-13 10:12:00,50.7,43.1,30.61,WSW,247,0.0,0.0,75,0.00,,,0.00,WUHU21623XXSP,2013-09-13 14:12:00,
2013-09-13 10:18:00,50.7,42.9,30.61,WSW,247,0.0,0.0,75,0.00,,,0.00,WUHU21623XXSP,2013-09-13 14:18:00,
2013-09-13 10:23:00,50.7,43.1,30.61,SSW,202,0.0,0.0,75,0.00,,,0.00,WUHU21623XXSP,2013-09-13 14:23:00,
2013-09-13 10:27:00,51.1,43.4,30.61,East,90,0.0,0.0,75,0.00,,,0.00,WUHU21623XXSP,2013-09-13 14:27:00,
2013-09-13 10:32:00,51.1,43.1,30.62,West,270,1.8,1.8,74,0.00,,,0.00,WUHU21623XXSP,2013-09-13 14:32:00,
2013-09-13 10:37:00,50.9,42.6,30.62,WSW,247,0.0,1.8,73,0.00,,,0.00,WUHU21623XXSP,2013-09-13 14:37:00,
2013-09-13 10:42:00,51.1,42.6,30.63,WSW,247,0.0,0.0,73,0.00,,,0.00,WUHU21623XXSP,2013-09-13 14:42:00,
2013-09-13 10:47:00,50.9,42.2,30.62,WSW,247,0.0,0.0,72,0.00,,,0.00,WUHU21623XXSP,2013-09-13 14:47:00,
2013-09-13 10:52:00,51.1,42.2,30.62,WSW,247,3.6,3.6,72,0.00,,,0.00,WUHU21623XXSP,2013-09-13 14:52:00,
2013-09-13 10:58:00,51.1,42.4,30.63,SSW,202,0.0,3.6,72,0.00,,,0.00,WUHU21623XXSP,2013-09-13 14:58:00,
2013-09-13 11:02:00,51.1,42.4,30.63,WSW,247,0.0,0.0,72,0.00,,,0.00,WUHU21623XXSP,2013-09-13 15:02:00,
2013-09-13 11:07:00,51.4,42.6,30.63,WSW,247,0.0,0.0,72,0.00,,,0.00,WUHU21623XXSP,2013-09-13 15:07:00,
2013-09-13 11:12:00,51.3,42.6,30.63,WSW,247,0.0,0.0,72,0.00,,,0.00,WUHU21623XXSP,2013-09-13 15:12:00,
2013-09-13 11:18:00,51.3,42.6,30.64,WSW,247,0.0,2.2,72,0.00,,,0.00,WUHU21623XXSP,2013-09-13 15:18:00,
2013-09-13 11:23:00,51.1,42.4,30.64,WSW,247,0.0,2.2,72,0.00,,,0.00,WUHU21623XXSP,2013-09-13 15:23:00,
2013-09-13 11:28:00,51.1,42.4,30.64,SSW,202,0.0,0.0,72,0.00,,,0.00,WUHU21623XXSP,2013-09-13 15:28:00,
2013-09-13 11:33:00,51.1,42.4,30.64,WSW,247,0.0,0.0,72,0.00,,,0.00,WUHU21623XXSP,2013-09-13 15:33:00,
2013-09-13 11:37:00,50.9,42.4,30.64,WSW,247,0.0,0.0,72,0.00,,,0.00,WUHU21623XXSP,2013-09-13 15:37:00,
2013-09-13 11:42:00,50.9,42.2,30.64,WSW,247,0.0,0.0,72,0.00,,,0.00,WUHU21623XXSP,2013-09-13 15:42:00,
2013-09-13 11:47:00,50.9,42.2,30.64,WSW,247,0.0,0.0,72,0.00,,,0.00,WUHU21623XXSP,2013-09-13 15:47:00,
2013-09-13 11:53:00,51.1,42.4,30.64,WSW,247,0.0,0.0,72,0.00,,,0.00,WUHU21623XXSP,2013-09-13 15:53:00,
2013-09-13 11:58:00,50.9,42.2,30.64,WSW,247,0.0,0.0,72,0.00,,,0.00,WUHU21623XXSP,2013-09-13 15:58:00,
2013-09-13 12:03:00,51.1,42.4,30.64,SW,225,0.0,0.0,72,0.00,,,0.00,WUHU21623XXSP,2013-09-13 16:03:00,
2013-09-13 12:08:00,51.1,42.1,30.64,WSW,247,0.0,0.0,71,0.00,,,0.00,WUHU21623XXSP,2013-09-13 16:08:00,
2013-09-13 12:13:00,51.1,42.1,30.64,WSW,247,0.0,0.0,71,0.00,,,0.00,WUHU21623XXSP,2013-09-13 16:13:00,
2013-09-13 12:18:00,51.1,42.1,30.64,WSW,247,0.0,0.0,71,0.00,,,0.00,WUHU21623XXSP,2013-09-13 16:18:00,
2013-09-13 12:23:00,51.4,42.4,30.64,WSW,247,0.0,0.0,71,0.00,,,0.00,WUHU21623XXSP,2013-09-13 16:23:00,
2013-09-13 12:28:00,51.4,42.4,30.64,SSW,202,0.0,0.0,71,0.00,,,0.00,WUHU21623XXSP,2013-09-13 16:28:00,
2013-09-13 12:33:00,51.4,42.4,30.64,WSW,247,0.0,0.0,71,0.00,,,0.00,WUHU21623XXSP,2013-09-13 16:33:00,
2013-09-13 12:38:00,51.4,42.1,30.64,WSW,247,0.0,0.0,70,0.00,,,0.00,WUHU21623XXSP,2013-09-13 16:38:00,
2013-09-13 12:43:00,51.6,42.3,30.64,East,90,0.0,0.0,70,0.00,,,0.00,WUHU21623XXSP,2013-09-13 16:43:00,
2013-09-13 12:48:00,52.0,42.3,30.64,WSW,247,0.0,0.0,70,0.00,,,0.00,WUHU21623XXSP,2013-09-13 16:48:00,
2013-09-13 12:53:00,52.0,42.6,30.64,SW,225,0.0,0.0,70,0.00,,,0.00,WUHU21623XXSP,2013-09-13 16:53:00,
2013-09-13 12:58:00,52.3,42.5,30.64,WSW,247,0.0,0.0,69,0.00,,,0.00,WUHU21623XXSP,2013-09-13 16:58:00,
2013-09-13 13:03:00,52.3,42.5,30.64,WSW,247,0.0,0.0,69,0.00,,,0.00,WUHU21623XXSP,2013-09-13 17:03:00,
2013-09-13 13:08:00,52.5,42.7,30.64,SW,225,0.0,0.0,69,0.00,,,0.00,WUHU21623XXSP,2013-09-13 17:08:00,
2013-09-13 13:13:00,52.9,43.0,30.64,SW,225,0.0,0.0,69,0.00,,,0.00,WUHU21623XXSP,2013-09-13 17:13:00,
2013-09-13 13:18:00,53.2,43.0,30.64,SSE,157,0.0,0.0,69,0.00,,,0.00,WUHU21623XXSP,2013-09-13 17:18:00,
2013-09-13 13:23:00,53.2,42.5,30.65,SW,225,0.0,0.0,68,0.00,,,0.00,WUHU21623XXSP,2013-09-13 17:23:00,
2013-09-13 13:28:00,53.4,42.9,30.64,SW,225,0.0,0.0,68,0.00,,,0.00,WUHU21623XXSP,2013-09-13 17:28:00,
2013-09-13 13:33:00,53.8,43.0,30.64,WSW,247,0.0,0.0,67,0.00,,,0.00,WUHU21623XXSP,2013-09-13 17:33:00,
2013-09-13 13:38:00,53.8,42.6,30.64,WSW,247,0.0,0.0,66,0.00,,,0.00,WUHU21623XXSP,2013-09-13 17:38:00,
2013-09-13 13:43:00,53.4,41.9,30.64,SW,225,0.0,0.0,65,0.00,,,0.00,WUHU21623XXSP,2013-09-13 17:43:00,
2013-09-13 13:48:00,53.8,42.2,30.64,WSW,247,0.0,0.0,65,0.00,,,0.00,WUHU21623XXSP,2013-09-13 17:48:00,
2013-09-13 13:53:00,54.1,42.4,30.64,SSE,157,1.3,1.3,65,0.00,,,0.00,WUHU21623XXSP,2013-09-13 17:53:00,
2013-09-13 13:58:00,54.9,43.3,30.64,WSW,247,0.0,1.3,65,0.00,,,0.00,WUHU21623XXSP,2013-09-13 17:58:00,
2013-09-13 14:03:00,55.0,42.6,30.64,SSW,202,0.0,0.0,63,0.00,,,0.00,WUHU21623XXSP,2013-09-13 18:03:00,
2013-09-13 14:08:00,55.4,42.8,30.63,SSW,202,0.0,0.0,64,0.00,,,0.00,WUHU21623XXSP,2013-09-13 18:08:00,
2013-09-13 14:13:00,55.9,43.1,30.63,WSW,247,0.0,0.0,62,0.00,,,0.00,WUHU21623XXSP,2013-09-13 18:13:00,
2013-09-13 14:18:00,56.1,42.8,30.63,North,0,0.0,0.0,61,0.00,,,0.00,WUHU21623XXSP,2013-09-13 18:18:00,
2013-09-13 14:23:00,56.5,42.8,30.63,WSW,247,0.0,0.0,60,0.00,,,0.00,WUHU21623XXSP,2013-09-13 18:23:00,
2013-09-13 14:28:00,56.8,43.2,30.63,WSW,247,0.0,0.0,60,0.00,,,0.00,WUHU21623XXSP,2013-09-13 18:28:00,
2013-09-13 14:33:00,57.2,43.9,30.63,SSW,202,0.0,0.0,61,0.00,,,0.00,WUHU21623XXSP,2013-09-13 18:33:00,
2013-09-13 14:38:00,58.1,45.0,30.62,WSW,247,0.0,0.0,60,0.00,,,0.00,WUHU21623XXSP,2013-09-13 18:38:00,
2013-09-13 14:43:00,58.3,44.5,30.62,NE,45,0.0,0.0,60,0.00,,,0.00,WUHU21623XXSP,2013-09-13 18:43:00,
2013-09-13 14:48:00,57.9,43.7,30.63,WSW,247,0.0,0.0,59,0.00,,,0.00,WUHU21623XXSP,2013-09-13 18:48:00,
2013-09-13 14:53:00,57.7,43.1,30.62,West,270,0.0,0.0,58,0.00,,,0.00,WUHU21623XXSP,2013-09-13 18:53:00,
2013-09-13 14:58:00,57.7,42.6,30.63,West,270,0.0,0.0,58,0.00,,,0.00,WUHU21623XXSP,2013-09-13 18:58:00,
2013-09-13 15:03:00,57.9,43.7,30.63,West,270,0.0,0.0,58,0.00,,,0.00,WUHU21623XXSP,2013-09-13 19:03:00,
2013-09-13 15:08:00,58.5,43.3,30.62,WSW,247,0.0,0.0,57,0.00,,,0.00,WUHU21623XXSP,2013-09-13 19:08:00,
2013-09-13 15:13:00,58.6,42.9,30.62,WSW,247,0.0,0.0,56,0.00,,,0.00,WUHU21623XXSP,2013-09-13 19:13:00,
2013-09-13 15:18:00,58.8,42.6,30.62,SW,225,0.0,0.0,55,0.00,,,0.00,WUHU21623XXSP,2013-09-13 19:18:00,
2013-09-13 15:23:00,59.2,43.9,30.61,ESE,112,0.0,0.0,57,0.00,,,0.00,WUHU21623XXSP,2013-09-13 19:23:00,
2013-09-13 15:28:00,59.5,43.3,30.61,WSW,247,0.0,0.0,55,0.00,,,0.00,WUHU21623XXSP,2013-09-13 19:28:00,
2013-09-13 15:34:00,59.7,43.5,30.62,WSW,247,0.0,0.0,55,0.00,,,0.00,WUHU21623XXSP,2013-09-13 19:34:00,
2013-09-13 15:39:00,60.4,43.8,30.61,SW,225,0.0,0.0,54,0.00,,,0.00,WUHU21623XXSP,2013-09-13 19:39:00,
2013-09-13 15:44:00,60.6,43.7,30.61,ESE,112,0.0,0.0,54,0.00,,,0.00,WUHU21623XXSP,2013-09-13 19:44:00,
2013-09-13 15:49:00,60.6,43.8,30.61,WSW,247,0.0,0.0,54,0.00,,,0.00,WUHU21623XXSP,2013-09-13 19:49:00,
2013-09-13 15:54:00,61.2,44.3,30.61,WSW,247,0.0,0.0,54,0.00,,,0.00,WUHU21623XXSP,2013-09-13 19:54:00,
2013-09-13 15:59:00,61.3,44.0,30.61,WSW,247,0.0,0.0,53,0.00,,,0.00,WUHU21623XXSP,2013-09-13 19:59:00,
2013-09-13 16:04:00,61.3,43.5,30.61,ENE,67,0.0,0.0,52,0.00,,,0.00,WUHU21623XXSP,2013-09-13 20:04:00,
2013-09-13 16:09:00,61.5,42.7,30.61,WSW,247,0.0,0.0,51,0.00,,,0.00,WUHU21623XXSP,2013-09-13 20:09:00,
2013-09-13 16:14:00,61.5,42.7,30.61,WSW,247,0.0,0.0,50,0.00,,,0.00,WUHU21623XXSP,2013-09-13 20:14:00,
2013-09-13 16:19:00,61.5,43.2,30.61,East,90,0.0,0.0,51,0.00,,,0.00,WUHU21623XXSP,2013-09-13 20:19:00,
2013-09-13 16:24:00,61.9,43.5,30.61,WSW,247,0.0,0.0,51,0.00,,,0.00,WUHU21623XXSP,2013-09-13 20:24:00,
2013-09-13 16:29:00,62.1,43.2,30.61,SW,225,0.0,0.0,50,0.00,,,0.00,WUHU21623XXSP,2013-09-13 20:29:00,
2013-09-13 16:34:00,61.9,43.5,30.60,WSW,247,0.0,0.0,51,0.00,,,0.00,WUHU21623XXSP,2013-09-13 20:34:00,
2013-09-13 16:39:00,61.9,43.1,30.61,WSW,247,0.0,0.0,50,0.00,,,0.00,WUHU21623XXSP,2013-09-13 20:39:00,
2013-09-13 16:44:00,61.9,42.5,30.60,WSW,247,0.0,0.0,49,0.00,,,0.00,WUHU21623XXSP,2013-09-13 20:44:00,
2013-09-13 16:49:00,62.1,43.2,30.61,WSW,247,0.0,0.0,50,0.00,,,0.00,WUHU21623XXSP,2013-09-13 20:49:00,
2013-09-13 16:54:00,62.2,42.8,30.60,WSW,247,0.0,0.0,49,0.00,,,0.00,WUHU21623XXSP,2013-09-13 20:54:00,
2013-09-13 16:59:00,62.2,42.2,30.61,SE,135,0.0,0.0,48,0.00,,,0.00,WUHU21623XXSP,2013-09-13 20:59:00,
2013-09-13 17:04:00,62.2,42.2,30.61,WSW,247,0.0,0.0,48,0.00,,,0.00,WUHU21623XXSP,2013-09-13 21:04:00,
2013-09-13 17:09:00,62.4,43.0,30.61,West,270,0.0,0.0,49,0.00,,,0.00,WUHU21623XXSP,2013-09-13 21:09:00,
2013-09-13 17:14:00,62.4,42.4,30.61,South,180,0.0,0.0,49,0.00,,,0.00,WUHU21623XXSP,2013-09-13 21:14:00,
2013-09-13 17:19:00,62.4,41.8,30.61,WSW,247,0.0,0.0,47,0.00,,,0.00,WUHU21623XXSP,2013-09-13 21:19:00,
2013-09-13 17:24:00,62.2,41.6,30.61,West,270,0.0,0.0,47,0.00,,,0.00,WUHU21623XXSP,2013-09-13 21:24:00,
2013-09-13 17:29:00,62.1,41.5,30.61,WSW,247,0.0,0.0,47,0.00,,,0.00,WUHU21623XXSP,2013-09-13 21:29:00,
2013-09-13 17:34:00,61.9,42.1,30.61,ESE,112,0.0,0.0,47,0.00,,,0.00,WUHU21623XXSP,2013-09-13 21:34:00,
2013-09-13 17:39:00,61.7,41.2,30.60,East,90,0.0,0.0,47,0.00,,,0.00,WUHU21623XXSP,2013-09-13 21:39:00,
2013-09-13 17:44:00,61.7,41.2,30.60,WSW,247,0.0,0.0,47,0.00,,,0.00,WUHU21623XXSP,2013-09-13 21:44:00,
2013-09-13 17:49:00,61.0,38.8,30.60,WSW,247,2.2,2.2,44,0.00,,,0.00,WUHU21623XXSP,2013-09-13 21:49:00,
2013-09-13 17:54:00,60.8,38.6,30.60,WSW,247,0.0,2.2,44,0.00,,,0.00,WUHU21623XXSP,2013-09-13 21:54:00,
2013-09-13 17:59:00,60.6,38.5,30.60,WSW,247,0.0,0.0,44,0.00,,,0.00,WUHU21623XXSP,2013-09-13 21:59:00,
2013-09-13 18:04:00,60.1,38.6,30.59,SSW,202,0.0,0.0,45,0.00,,,0.00,WUHU21623XXSP,2013-09-13 22:04:00,
2013-09-13 18:09:00,59.7,39.4,30.59,WSW,247,0.0,0.0,47,0.00,,,0.00,WUHU21623XXSP,2013-09-13 22:09:00,
2013-09-13 18:14:00,59.5,39.2,30.59,WSW,247,0.0,0.0,47,0.00,,,0.00,WUHU21623XXSP,2013-09-13 22:14:00,
2013-09-13 18:19:00,58.8,38.6,30.59,WSW,247,0.0,0.0,47,0.00,,,0.00,WUHU21623XXSP,2013-09-13 22:19:00,
2013-09-13 18:25:00,58.8,39.1,30.60,WSW,247,0.0,0.0,48,0.00,,,0.00,WUHU21623XXSP,2013-09-13 22:25:00,
2013-09-13 18:30:00,58.6,39.6,30.60,ENE,67,0.0,0.0,49,0.00,,,0.00,WUHU21623XXSP,2013-09-13 22:30:00,
2013-09-13 18:35:00,58.3,40.7,30.60,North,0,0.0,0.0,52,0.00,,,0.00,WUHU21623XXSP,2013-09-13 22:35:00,
2013-09-13 18:40:00,58.1,41.5,30.60,WSW,247,0.0,0.0,54,0.00,,,0.00,WUHU21623XXSP,2013-09-13 22:40:00,
2013-09-13 18:45:00,57.7,41.7,30.60,South,180,0.0,0.0,55,0.00,,,0.00,WUHU21623XXSP,2013-09-13 22:45:00,
2013-09-13 18:50:00,57.6,42.0,30.60,WSW,247,0.0,1.8,56,0.00,,,0.00,WUHU21623XXSP,2013-09-13 22:50:00,
2013-09-13 18:55:00,57.4,42.7,30.61,South,180,0.0,1.8,58,0.00,,,0.00,WUHU21623XXSP,2013-09-13 22:55:00,
2013-09-13 19:00:00,57.2,42.4,30.61,SW,225,0.0,0.0,58,0.00,,,0.00,WUHU21623XXSP,2013-09-13 23:00:00,
2013-09-13 19:05:00,56.8,42.7,30.61,WSW,247,0.0,0.0,59,0.00,,,0.00,WUHU21623XXSP,2013-09-13 23:05:00,
2013-09-13 19:10:00,56.5,42.7,30.61,SSE,157,0.0,0.0,60,0.00,,,0.00,WUHU21623XXSP,2013-09-13 23:10:00,
2013-09-13 19:15:00,56.3,43.0,30.61,South,180,0.0,0.0,61,0.00,,,0.00,WUHU21623XXSP,2013-09-13 23:15:00,
2013-09-13 19:20:00,55.9,42.7,30.61,NNE,22,0.0,0.0,61,0.00,,,0.00,WUHU21623XXSP,2013-09-13 23:20:00,
2013-09-13 19:25:00,55.8,42.9,30.61,South,180,0.0,0.0,62,0.00,,,0.00,WUHU21623XXSP,2013-09-13 23:25:00,
2013-09-13 19:30:00,55.2,42.4,30.61,East,90,0.0,0.0,62,0.00,,,0.00,WUHU21623XXSP,2013-09-13 23:30:00,
2013-09-13 19:36:00,55.2,42.8,30.61,SSE,157,0.0,0.0,63,0.00,,,0.00,WUHU21623XXSP,2013-09-13 23:36:00,
2013-09-13 19:41:00,54.7,42.7,30.61,SSE,157,0.0,0.0,64,0.00,,,0.00,WUHU21623XXSP,2013-09-13 23:41:00,
2013-09-13 19:46:00,54.3,42.4,30.61,SSE,157,0.0,0.0,64,0.00,,,0.00,WUHU21623XXSP,2013-09-13 23:46:00,
2013-09-13 19:50:00,54.1,42.2,30.61,SSE,157,0.0,0.0,64,0.00,,,0.00,WUHU21623XXSP,2013-09-13 23:50:00,
2013-09-13 19:55:00,53.6,42.1,30.62,SSE,157,0.0,0.0,65,0.00,,,0.00,WUHU21623XXSP,2013-09-13 23:55:00,
2013-09-13 20:00:00,53.4,41.9,30.62,SSE,157,0.0,0.0,65,0.00,,,0.00,WUHU21623XXSP,2013-09-14 00:00:00,
2013-09-13 20:06:00,53.2,42.1,30.62,SSE,157,0.0,0.0,66,0.00,,,0.00,WUHU21623XXSP,2013-09-14 00:06:00,
2013-09-13 20:11:00,52.7,42.0,30.63,SSE,157,0.0,0.0,67,0.00,,,0.00,WUHU21623XXSP,2013-09-14 00:11:00,
2013-09-13 20:16:00,52.5,41.9,30.62,SSE,157,0.0,0.0,67,0.00,,,0.00,WUHU21623XXSP,2013-09-14 00:16:00,
2013-09-13 20:21:00,52.3,41.7,30.62,SSE,157,0.0,0.0,67,0.00,,,0.00,WUHU21623XXSP,2013-09-14 00:21:00,
2013-09-13 20:26:00,51.8,41.6,30.63,SSE,157,0.0,0.0,68,0.00,,,0.00,WUHU21623XXSP,2013-09-14 00:26:00,
2013-09-13 20:30:00,51.6,41.4,30.63,SSE,157,0.0,0.0,68,0.00,,,0.00,WUHU21623XXSP,2013-09-14 00:30:00,
2013-09-13 20:35:00,51.4,41.7,30.63,SSE,157,0.0,0.0,69,0.00,,,0.00,WUHU21623XXSP,2013-09-14 00:35:00,
2013-09-13 20:40:00,51.1,41.3,30.63,SSE,157,0.0,0.0,69,0.00,,,0.00,WUHU21623XXSP,2013-09-14 00:40:00,
2013-09-13 20:45:00,50.9,41.1,30.63,SSE,157,0.0,0.0,69,0.00,,,0.00,WUHU21623XXSP,2013-09-14 00:45:00,
2013-09-13 20:50:00,50.7,41.4,30.63,SSE,157,0.0,0.0,70,0.00,,,0.00,WUHU21623XXSP,2013-09-14 00:50:00,
2013-09-13 20:55:00,50.4,41.3,30.64,SSE,157,0.0,0.0,71,0.00,,,0.00,WUHU21623XXSP,2013-09-14 00:55:00,
2013-09-13 21:01:00,50.2,41.2,30.64,SSE,157,0.0,0.0,71,0.00,,,0.00,WUHU21623XXSP,2013-09-14 01:01:00,
2013-09-13 21:05:00,50.2,41.2,30.64,SSE,157,0.0,0.0,71,0.00,,,0.00,WUHU21623XXSP,2013-09-14 01:05:00,
2013-09-13 21:10:00,49.8,41.1,30.64,SSE,157,0.0,0.0,72,0.00,,,0.00,WUHU21623XXSP,2013-09-14 01:10:00,
2013-09-13 21:15:00,49.6,41.0,30.64,SSE,157,0.0,0.0,72,0.00,,,0.00,WUHU21623XXSP,2013-09-14 01:15:00,
2013-09-13 21:21:00,49.6,41.0,30.63,SSE,157,0.0,0.0,72,0.00,,,0.00,WUHU21623XXSP,2013-09-14 01:21:00,
2013-09-13 21:26:00,49.3,40.9,30.64,SSE,157,0.0,0.0,73,0.00,,,0.00,WUHU21623XXSP,2013-09-14 01:26:00,
2013-09-13 21:31:00,48.9,40.6,30.64,SSE,157,0.0,0.0,73,0.00,,,0.00,WUHU21623XXSP,2013-09-14 01:31:00,
2013-09-13 21:36:00,48.9,40.6,30.64,SSE,157,0.0,0.0,73,0.00,,,0.00,WUHU21623XXSP,2013-09-14 01:36:00,
2013-09-13 21:41:00,48.6,40.6,30.64,SSE,157,0.0,0.0,74,0.00,,,0.00,WUHU21623XXSP,2013-09-14 01:41:00,
2013-09-13 21:46:00,48.4,40.4,30.64,SSE,157,0.0,0.0,74,0.00,,,0.00,WUHU21623XXSP,2013-09-14 01:46:00,
2013-09-13 21:51:00,48.2,40.2,30.64,SSE,157,0.0,0.0,74,0.00,,,0.00,WUHU21623XXSP,2013-09-14 01:51:00,
2013-09-13 21:56:00,48.0,40.4,30.64,SSE,157,0.0,0.0,75,0.00,,,0.00,WUHU21623XXSP,2013-09-14 01:56:00,
2013-09-13 22:01:00,47.8,40.2,30.64,SSE,157,0.0,0.0,75,0.00,,,0.00,WUHU21623XXSP,2013-09-14 02:01:00,
2013-09-13 22:06:00,47.7,40.1,30.64,SSE,157,0.0,0.0,75,0.00,,,0.00,WUHU21623XXSP,2013-09-14 02:06:00,
2013-09-13 22:11:00,47.3,39.7,30.64,SSE,157,0.0,0.0,75,0.00,,,0.00,WUHU21623XXSP,2013-09-14 02:11:00,
2013-09-13 22:16:00,47.1,39.9,30.64,SSE,157,0.0,0.0,76,0.00,,,0.00,WUHU21623XXSP,2013-09-14 02:16:00,
2013-09-13 22:21:00,47.1,39.9,30.64,SSE,157,0.0,0.0,76,0.00,,,0.00,WUHU21623XXSP,2013-09-14 02:21:00,
2013-09-13 22:26:00,46.9,39.8,30.64,SSE,157,0.0,0.0,76,0.00,,,0.00,WUHU21623XXSP,2013-09-14 02:26:00,
2013-09-13 22:31:00,46.9,39.8,30.64,SSE,157,0.0,0.0,76,0.00,,,0.00,WUHU21623XXSP,2013-09-14 02:31:00,
2013-09-13 22:36:00,46.8,39.6,30.64,SSE,157,0.0,0.0,76,0.00,,,0.00,WUHU21623XXSP,2013-09-14 02:36:00,
2013-09-13 22:41:00,46.6,39.8,30.64,SSE,157,0.0,0.0,77,0.00,,,0.00,WUHU21623XXSP,2013-09-14 02:41:00,
2013-09-13 22:45:00,46.2,39.4,30.64,SSE,157,0.0,0.0,77,0.00,,,0.00,WUHU21623XXSP,2013-09-14 02:45:00,
2013-09-13 22:50:00,46.2,39.4,30.64,SSE,157,0.0,0.0,77,0.00,,,0.00,WUHU21623XXSP,2013-09-14 02:50:00,
2013-09-13 22:55:00,46.2,39.8,30.64,SSE,157,0.0,0.0,78,0.00,,,0.00,WUHU21623XXSP,2013-09-14 02:55:00,
2013-09-13 23:00:00,46.0,39.6,30.65,SSE,157,0.0,0.0,78,0.00,,,0.00,WUHU21623XXSP,2013-09-14 03:00:00,
2013-09-13 23:05:00,46.0,39.6,30.65,SSE,157,0.0,0.0,78,0.00,,,0.00,WUHU21623XXSP,2013-09-14 03:05:00,
2013-09-13 23:10:00,45.7,39.2,30.65,SSE,157,0.0,0.0,78,0.00,,,0.00,WUHU21623XXSP,2013-09-14 03:10:00,
2013-09-13 23:15:00,45.7,39.6,30.65,SSE,157,0.0,0.0,79,0.00,,,0.00,WUHU21623XXSP,2013-09-14 03:15:00,
2013-09-13 23:20:00,45.5,39.4,30.65,SSE,157,0.0,0.0,79,0.00,,,0.00,WUHU21623XXSP,2013-09-14 03:20:00,
2013-09-13 23:25:00,45.3,39.2,30.65,SSE,157,0.0,0.0,79,0.00,,,0.00,WUHU21623XXSP,2013-09-14 03:25:00,
2013-09-13 23:30:00,45.3,39.2,30.65,SSE,157,0.0,0.0,79,0.00,,,0.00,WUHU21623XXSP,2013-09-14 03:30:00,
2013-09-13 23:35:00,45.1,39.0,30.65,SSE,157,0.0,0.0,79,0.00,,,0.00,WUHU21623XXSP,2013-09-14 03:35:00,
2013-09-13 23:40:00,45.0,39.2,30.65,SSE,157,0.0,0.0,80,0.00,,,0.00,WUHU21623XXSP,2013-09-14 03:40:00,
2013-09-13 23:45:00,45.0,39.2,30.65,SSE,157,0.0,0.0,80,0.00,,,0.00,WUHU21623XXSP,2013-09-14 03:45:00,
2013-09-13 23:50:00,44.8,39.0,30.66,SSE,157,0.0,0.0,80,0.00,,,0.00,WUHU21623XXSP,2013-09-14 03:50:00,
2013-09-13 23:55:00,44.8,39.0,30.65,SSE,157,0.0,0.0,80,0.00,,,0.00,WUHU21623XXSP,2013-09-14 03:55:00,